Location: Hilton Head Island
(32.2163°N, 80.7526°W)
Time: 22:23:00
(UTC-04:00)

Transit 2A Rocket - Pass Details

Date: 07 February 2026
Orbit: 583 x 900 km, 66.7° (Epoch: 12 March)

Event Time Altitude Azimuth Distance (km) Brightness Sun altitude
Rises 16:48:53 0° 153° (SSE) 3,391 8.4 13.5°
Reaches altitude 10° 16:52:55 10° 125° (SE) 2,513 7.4 12.7°
Maximum altitude 16:55:14 12° 102° (ESE) 2,363 7.1 12.3°
Drops below altitude 10° 16:57:35 10° 78° (ENE) 2,558 7.2 11.8°
Sets 17:01:45 0° 51° (NE) 3,518 7.8 11.0°
